Regional Weather Roundup
Issued by NWS

Home | Current Version | Previous Version | Graphics & Text | Print | Product List | Glossary On
Versions: 1 2 3 4 5 6 7 8 9 10 11 12 13 14 15 16 17 18 19 20 21 22 23 24 25 26 27 28 29 30 31 32 33 34 35 36 37 38 39 40 41 42 43 44 45 46 47 48 49 50
000
ASUS43 KMKX 190200
RWRWI

WISCONSIN REGIONAL WEATHER ROUNDUP
NATIONAL WEATHER SERVICE MILWAUKEE/SULLIVAN WI
800 PM CST THU DEC 18 2014

NOTE: "FAIR" INDICATES FEW OR NO CLOUDS BELOW 12,000 FEET WITH NO
SIGNIFICANT WEATHER AND/OR OBSTRUCTIONS TO VISIBILITY.

WIZ001-002-006>008-014>016-023>028-190300-
NORTHWEST WISCONSIN

CITY           SKY/WX    TMP DP  RH WIND       PRES   REMARKS
SUPERIOR ARPT  CLOUDY    26  20  80 E3        30.26F
ASHLAND        CLOUDY    22  18  85 SW5       30.28S WCI  16
HAYWARD        CLOUDY    22  18  85 CALM      30.25S
SIREN          CLOUDY    23  19  87 SE5       30.26S WCI  16
CUMBERLAND     CLOUDY    21  19  93 S3        30.24S
RICE LAKE      CLOUDY    23  19  87 CALM      30.27S
CHETEK         CLOUDY    23  20  89 CALM      30.26S
LADYSMITH      CLOUDY    23  21  89 CALM      30.27R
EAU CLAIRE     NOT AVBL
MENOMONIE      CLOUDY    24  19  82 CALM      30.27S
NEW RICHMOND   CLOUDY    22  20  89 CALM      30.26F
OSCEOLA        CLOUDY    23  19  85 CALM      30.29F
$$

WIZ003>005-009-010-017-018-190300-
NORTH CENTRAL WISCONSIN

CITY           SKY/WX    TMP DP  RH WIND       PRES   REMARKS
MANITOWISH WTR CLEAR     10   9  96 CALM      30.21S
ARBOR VITAE    CLEAR     12  10  89 CALM      30.21S
WOODRUFF       CLEAR     12  10  89 CALM      30.21S
RHINELANDER    FAIR      13  11  92 CALM      30.21S
EAGLE RIVER    CLEAR     10   7  87 CALM      30.21S
LAND O LAKES   PTCLDY     6   3  88 CALM      30.22S
PHILLIPS       CLOUDY    20  17  87 CALM      30.22S
TOMAHAWK       CLEAR      9   6  90 CALM      30.23S
MEDFORD        CLOUDY    22  18  86 CALM      30.22S
MERRILL        CLEAR     13  11  93 CALM      30.23S
$$

WIZ029-030-035-036-043>047-190300-
CENTRAL WISCONSIN

CITY           SKY/WX    TMP DP  RH WIND       PRES   REMARKS
WAUSAU         CLEAR     19  16  88 CALM      30.23S
MOSINEE        NOT AVBL
MARSHFIELD     CLOUDY    25  19  78 CALM      30.23F
STEVENS POINT  PTCLDY    16  15  95 CALM      30.25S
WAUPACA        PTCLDY    22  19  87 CALM      30.26S
WAUTOMA        NOT AVBL
WISC RAPIDS    PTCLDY    22  18  85 CALM      30.26F
CAMP DOUGLAS   NOT AVBL
$$

WIZ011>013-019>022-031-037>040-048>050-190300-
NORTHEAST WISCONSIN

CITY           SKY/WX    TMP DP  RH WIND       PRES   REMARKS
ANTIGO         CLEAR     14  13  94 CALM      30.22R
SHAWANO        CLEAR     21  18  88 CALM      30.26S
OCONTO         CLEAR     17  17 100 CALM      30.26S
STURGEON BAY   CLEAR     18  12  79 CALM      30.26S
GREEN BAY      CLEAR     20  18  92 SW3       30.27R
MANITOWOC      NOT AVBL
APPLETON       PTCLDY    19  16  86 W6        30.26S WCI  11
CLINTONVILLE   CLEAR     21  18  86 CALM      30.26R
OSHKOSH        PTCLDY    23  18  81 W3        30.26S
$$

WIZ032>034-041-042-053>061-190300-
SOUTHWEST WISCONSIN

CITY           SKY/WX    TMP DP  RH WIND       PRES   REMARKS
LA CROSSE      CLOUDY    26  18  71 CALM      30.28S
SPARTA         CLOUDY    25  19  80 CALM      30.28S
VIROQUA        CLOUDY    23  20  87 CALM      30.24S
BOSCOBEL       CLOUDY    27  18  69 CALM      30.29R
PRAIRIE DU CHI CLOUDY    27  18  69 CALM      30.28S
PLATTEVILLE    CLOUDY    25  19  78 CALM      30.26S
$$

WIZ056-057-062-063-064-067-068-190300-
SOUTH CENTRAL WISCONSIN

CITY           SKY/WX    TMP DP  RH WIND       PRES   REMARKS
REEDSBURG      CLOUDY    25  19  80 CALM      30.26S
BARABOO/DELLS  CLOUDY    25  20  80 CALM      30.25S
LONE ROCK      NOT AVBL
MINERAL POINT  CLOUDY    27  19  74 CALM      30.25R
MADISON        FLURRIES  26  22  84 NE5       30.25S WCI  20
MIDDLETON      CLOUDY    27  22  79 NW3       30.26R
WATERTOWN      CLOUDY    26  25  96 N3        30.26R
MONROE         CLOUDY    27  21  80 CALM      30.24S
JANESVILLE     CLOUDY    28  25  86 CALM      30.25S
$$

WIZ051-052-058>065-066-070>072-190300-
SOUTHEAST WISCONSIN

CITY           SKY/WX    TMP DP  RH WIND       PRES   REMARKS
MILWAUKEE      FLURRIES  29  22  75 N6        30.25S WCI  23
WAUKESHA       CLOUDY    25  21  86 NW5       30.26S WCI  19
MILWAUKEE/TIMM NOT AVBL
RACINE         CLOUDY    28  24  85 NW5       30.26S WCI  23
BURLINGTON     CLOUDY    26  24  95 CALM      30.25S
KENOSHA        CLOUDY    28  25  88 NW5       30.25S WCI  23
FOND DU LAC    PTCLDY    25  19  78 CALM      30.26S
SHEBOYGAN      PTCLDY    23  18  81 NW5       30.26R WCI  17
WEST BEND      CLOUDY    27  21  80 NW5       30.25S WCI  21
JUNEAU         CLOUDY    25  21  84 N5        30.27R WCI  20
$$

LSZ147-162-190300-
LAKE SUPERIOR

STATION/POSITION TIME  TEMP    WIND        PRES    WAVE
                       AIR SEA DIR/SP/G            HT/PER
                 (UTC) (F)     (DEG/KT/KT) (MB)    (FT/S)
DEVILS ISLAND    0100   28     120/  8/ 10 1026.2S
PORT WING        0100   24     100/  5/  7 1025.4S
SAXON HARBOR     0100   25      CALM  /  4 1025.1
$$

LMZ867-665-643>646-190300-
LAKE MICHIGAN

STATION/POSITION TIME  TEMP    WIND        PRES    WAVE
                       AIR SEA DIR/SP/G            HT/PER
                 (UTC) (F)     (DEG/KT/KT) (MB)    (FT/S)
CHAMBERS ISLAND  0100   29     360/ 11/ 14 1024.4S
NORTHPORT PIER   0101   28      10/  9/ 14 1024.4R
SISTER BAY       0113             CALM       N/A
ALGOMA LAKESHORE 0114          330/  6/  7   N/A
KEWAUNEE LAKESHO 0100   21     310/  3/  5 1023.6R
SHEBOYGAN LAKESH 0100   28 34  310/  7/  8 1025.5R
PORT WASHINGTON  0100   28     310/  4/  6 1025.1S
MILWAUKEE LAKESH 0100   29     330/  5/  8   N/A
KENOSHA   LAKESH 0100   28     290/  3/  8 1024.4R
$$

TC  - TEMPERATURE IN CELSIUS
VSB - VISIBILITY IN STATUTE MILES
WCI - WIND CHILL INDEX
HX  - HEAT INDEX




USA.gov is the U.S. government's official web portal to all federal, state and local government web resources and services.